When you browse on this site, cookies collect data to enhance your experience and personalize the content and advertising you see.
Visit our Privacy Policy to learn more. By continuing to use the site, you agree to this use of cookies and data.
  • En España
  • Lista de países
  • Para 7 días
  • Temperatura del agua
  • Mapa Satelital
  • El tiempo en el mapa
  • Informadores
  • user-avatar
    Iniciar sesión

    Tiempo cada hora San Cristóbal

    Hoy, 21 Mayo, Martes

    Tiempo Temperatura Precipitaciones Viento Presión Humedad
    00:00 +22°C° 0.2 mm 1 mps 672 mmHg 80%
    01:00 +22°C° 0 mm 1 mps 672 mmHg 79%
    02:00 +22°C° 0.2 mm 1 mps 672 mmHg 79%
    03:00 +22°C° 0.2 mm 1 mps 672 mmHg 79%
    04:00 +21°C° 0.2 mm 1 mps 671 mmHg 79%
    05:00 +22°C° 0.2 mm 1 mps 672 mmHg 75%
    06:00 +23°C° 0.2 mm 1 mps 672 mmHg 71%
    07:00 +24°C° 0 mm 1 mps 673 mmHg 66%
    08:00 +26°C° 0.1 mm 2 mps 673 mmHg 60%
    09:00 +28°C° 0.1 mm 2 mps 673 mmHg 54%
    10:00 +30°C° 0.1 mm 2 mps 674 mmHg 48%
    11:00 +30°C° 0 mm 2 mps 673 mmHg 46%
    12:00 +31°C° 0 mm 2 mps 673 mmHg 44%
    13:00 +33°C° 0 mm 3 mps 673 mmHg 41%
    14:00 +31°C° 0.1 mm 2 mps 672 mmHg 43%
    15:00 +30°C° 0.1 mm 2 mps 672 mmHg 45%
    16:00 +30°C° 0.1 mm 2 mps 671 mmHg 47%
    17:00 +28°C° 0.2 mm 2 mps 671 mmHg 56%
    18:00 +25°C° 0.2 mm 1 mps 671 mmHg 64%
    19:00 +23°C° 0.2 mm 1 mps 671 mmHg 72%
    20:00 +23°C° 0.1 mm 1 mps 671 mmHg 73%
    21:00 +23°C° 0.1 mm 1 mps 672 mmHg 73%
    22:00 +22°C° 0.1 mm 1 mps 672 mmHg 74%
    23:00 +22°C° 0.2 mm 1 mps 672 mmHg 75%

    Mañana, 22 Mayo, Miércoles

    Tiempo Temperatura Precipitaciones Viento Presión Humedad
    00:00 +22°C° 0.2 mm 1 mps 672 mmHg 76%
    01:00 +22°C° 0.2 mm 1 mps 672 mmHg 76%
    02:00 +22°C° 0.3 mm 1 mps 672 mmHg 77%
    03:00 +22°C° 0.3 mm 1 mps 672 mmHg 77%
    04:00 +22°C° 0.3 mm 1 mps 671 mmHg 77%
    05:00 +22°C° 0.4 mm 1 mps 672 mmHg 75%
    06:00 +23°C° 0.4 mm 1 mps 672 mmHg 73%
    07:00 +23°C° 0.4 mm 1 mps 673 mmHg 70%
    08:00 +24°C° 0.4 mm 1 mps 673 mmHg 67%
    09:00 +25°C° 0.4 mm 2 mps 673 mmHg 63%
    10:00 +27°C° 0.4 mm 2 mps 674 mmHg 60%
    11:00 +28°C° 0.2 mm 2 mps 674 mmHg 57%
    12:00 +28°C° 0.2 mm 2 mps 673 mmHg 54%
    13:00 +29°C° 0.2 mm 2 mps 673 mmHg 51%
    14:00 +29°C° 0.2 mm 2 mps 673 mmHg 53%
    15:00 +28°C° 0.2 mm 2 mps 672 mmHg 55%
    16:00 +28°C° 0.2 mm 2 mps 671 mmHg 57%
    17:00 +26°C° 0.3 mm 1 mps 671 mmHg 63%
    18:00 +24°C° 0.3 mm 1 mps 671 mmHg 70%
    19:00 +23°C° 0.3 mm 1 mps 671 mmHg 76%
    20:00 +23°C° 0.5 mm 1 mps 671 mmHg 76%
    21:00 +22°C° 0.5 mm 1 mps 672 mmHg 77%
    22:00 +22°C° 0.5 mm 1 mps 672 mmHg 78%
    23:00 +22°C° 0.8 mm 1 mps 672 mmHg 78%

    Pasado mañana, 23 Mayo, Jueves

    Tiempo Temperatura Precipitaciones Viento Presión Humedad
    00:00 +22°C° 0.8 mm 1 mps 672 mmHg 78%
    01:00 +21°C° 0.8 mm 1 mps 672 mmHg 78%
    02:00 +21°C° 0.8 mm 1 mps 672 mmHg 78%
    03:00 +21°C° 0.8 mm 1 mps 671 mmHg 77%
    04:00 +21°C° 0.8 mm 1 mps 671 mmHg 77%
    05:00 +22°C° 0.3 mm 1 mps 672 mmHg 73%
    06:00 +23°C° 0.3 mm 1 mps 672 mmHg 70%
    07:00 +23°C° 0.3 mm 1 mps 673 mmHg 66%
    08:00 +25°C° 0.2 mm 1 mps 673 mmHg 60%
    09:00 +27°C° 0.2 mm 1 mps 674 mmHg 53%
    10:00 +29°C° 0.2 mm 1 mps 675 mmHg 47%
    11:00 +30°C° 0.2 mm 1 mps 674 mmHg 46%
    12:00 +30°C° 0.2 mm 1 mps 674 mmHg 45%
    13:00 +31°C° 0.2 mm 1 mps 673 mmHg 45%
    14:00 +30°C° 0.4 mm 1 mps 673 mmHg 49%
    15:00 +29°C° 0.4 mm 1 mps 672 mmHg 54%
    16:00 +28°C° 0.4 mm 1 mps 671 mmHg 58%
    17:00 +26°C° 0.8 mm 1 mps 671 mmHg 67%
    18:00 +24°C° 0.8 mm 1 mps 671 mmHg 76%
    19:00 +20°C° 0.8 mm 0 mps 671 mmHg 85%
    20:00 +20°C° 0.6 mm 0 mps 672 mmHg 85%
    21:00 +20°C° 0.6 mm 0 mps 672 mmHg 86%
    22:00 +20°C° 0.6 mm 0 mps 673 mmHg 86%
    23:00 +22°C° 0.6 mm 1 mps 672 mmHg 86%

    24 Mayo, Viernes

    Tiempo Temperatura Precipitaciones Viento Presión Humedad
    00:00 +22°C° 0.6 mm 1 mps 672 mmHg 86%
    01:00 +21°C° 0.6 mm 1 mps 672 mmHg 86%
    02:00 +21°C° 0.5 mm 1 mps 671 mmHg 86%
    03:00 +21°C° 0.5 mm 1 mps 671 mmHg 85%
    04:00 +21°C° 0.5 mm 1 mps 671 mmHg 84%
    05:00 +22°C° 0.6 mm 1 mps 672 mmHg 81%
    06:00 +22°C° 0.6 mm 1 mps 672 mmHg 79%
    07:00 +22°C° 0.6 mm 1 mps 673 mmHg 76%
    08:00 +24°C° 0.6 mm 1 mps 673 mmHg 70%
    09:00 +25°C° 0.6 mm 1 mps 674 mmHg 65%
    10:00 +27°C° 0.6 mm 1 mps 674 mmHg 59%
    11:00 +28°C° 0.4 mm 1 mps 674 mmHg 56%
    12:00 +29°C° 0.4 mm 1 mps 674 mmHg 53%
    13:00 +30°C° 0.4 mm 1 mps 673 mmHg 50%
    14:00 +29°C° 0.5 mm 1 mps 673 mmHg 52%
    15:00 +28°C° 0.5 mm 1 mps 672 mmHg 55%
    16:00 +27°C° 0.5 mm 1 mps 671 mmHg 58%
    17:00 +24°C° 0.6 mm 0 mps 671 mmHg 66%
    18:00 +22°C° 0.6 mm 0 mps 671 mmHg 75%
    19:00 +20°C° 0.6 mm 0 mps 671 mmHg 83%
    20:00 +20°C° 0.6 mm 0 mps 672 mmHg 84%
    21:00 +20°C° 0.6 mm 0 mps 672 mmHg 85%
    22:00 +19°C° 0.6 mm 0 mps 673 mmHg 87%
    23:00 +19°C° 0.4 mm 0 mps 672 mmHg 87%

    25 Mayo, Sábado

    Tiempo Temperatura Precipitaciones Viento Presión Humedad
    00:00 +19°C° 0.4 mm 0 mps 672 mmHg 87%
    01:00 +21°C° 0.4 mm 1 mps 672 mmHg 88%
    02:00 +21°C° 0.4 mm 1 mps 671 mmHg 87%
    03:00 +21°C° 0.4 mm 1 mps 671 mmHg 87%
    04:00 +21°C° 0.4 mm 1 mps 671 mmHg 87%
    05:00 +21°C° 0.7 mm 1 mps 671 mmHg 86%
    06:00 +21°C° 0.7 mm 1 mps 672 mmHg 86%
    07:00 +21°C° 0.7 mm 1 mps 672 mmHg 85%
    08:00 +22°C° 0.7 mm 1 mps 673 mmHg 82%
    09:00 +23°C° 0.7 mm 1 mps 673 mmHg 79%
    10:00 +24°C° 0.7 mm 1 mps 673 mmHg 76%
    11:00 +26°C° 0.4 mm 1 mps 673 mmHg 68%
    12:00 +27°C° 0.4 mm 1 mps 672 mmHg 61%
    13:00 +29°C° 0.4 mm 1 mps 672 mmHg 53%
    14:00 +29°C° 0.4 mm 1 mps 672 mmHg 53%
    15:00 +29°C° 0.4 mm 1 mps 671 mmHg 54%
    16:00 +28°C° 0.4 mm 1 mps 671 mmHg 55%
    17:00 +26°C° 0.7 mm 1 mps 671 mmHg 65%
    18:00 +22°C° 0.7 mm 0 mps 671 mmHg 74%
    19:00 +20°C° 0.7 mm 0 mps 671 mmHg 84%
    20:00 +20°C° 0.8 mm 0 mps 672 mmHg 85%
    21:00 +20°C° 0.8 mm 0 mps 672 mmHg 87%
    22:00 +19°C° 0.8 mm 0 mps 673 mmHg 88%
    23:00 +21°C° 0.7 mm 1 mps 672 mmHg 89%

    26 Mayo, Domingo

    Tiempo Temperatura Precipitaciones Viento Presión Humedad
    00:00 +21°C° 0.7 mm 1 mps 672 mmHg 90%
    01:00 +21°C° 0.7 mm 1 mps 671 mmHg 91%
    02:00 +21°C° 0.6 mm 1 mps 671 mmHg 90%
    03:00 +21°C° 0.6 mm 1 mps 671 mmHg 89%
    04:00 +21°C° 0.6 mm 1 mps 671 mmHg 88%
    05:00 +21°C° 0.7 mm 1 mps 672 mmHg 86%
    06:00 +21°C° 0.7 mm 1 mps 672 mmHg 84%
    07:00 +21°C° 0.7 mm 1 mps 673 mmHg 82%
    08:00 +22°C° 0.8 mm 1 mps 673 mmHg 78%
    09:00 +23°C° 0.8 mm 1 mps 673 mmHg 73%
    10:00 +24°C° 0.8 mm 1 mps 674 mmHg 69%
    11:00 +25°C° 0.5 mm 1 mps 673 mmHg 65%
    12:00 +26°C° 0.5 mm 1 mps 673 mmHg 62%
    13:00 +27°C° 0.5 mm 1 mps 673 mmHg 59%
    14:00 +27°C° 0.3 mm 1 mps 672 mmHg 57%
    15:00 +27°C° 0.3 mm 1 mps 672 mmHg 56%
    16:00 +27°C° 0.3 mm 1 mps 671 mmHg 55%
    17:00 +26°C° 0.2 mm 1 mps 671 mmHg 62%
    18:00 +22°C° 0.2 mm 0 mps 672 mmHg 68%
    19:00 +20°C° 0.2 mm 0 mps 672 mmHg 75%
    20:00 +20°C° 0.3 mm 0 mps 672 mmHg 75%
    21:00 +22°C° 0.3 mm 1 mps 672 mmHg 76%
    22:00 +22°C° 0.3 mm 1 mps 672 mmHg 76%
    23:00 +22°C° 0.6 mm 1 mps 672 mmHg 76%
    Mostrar más